Flag for Canada Weather past 2 weeks in Pictou County, Nova Scotia, Canada

Now
2 °F

Frigid.


Feels Like: -15 °F
Forecast: -3 / 12 °F
Wind: 12 mph from Northwest

Location: Caribou Point

Current Time: Mar 6, 2015 at 5:59:45 AM

Latest Report: Mar 6, 2015 at 5:00 AM


Visibility: N/A

Pressure: 30.20 "Hg

Humidity: 80%

Dew point: -3 °F

Location of Pictou CountyLocation

Historic Weather in Pictou County — Graph

°F

Pictou County temperature yesterday

Maximum temperature yesterday: 34 °F (at 12:00 AM)
Minimum temperature yesterday: 12 °F (at 11:00 PM)
Average temperature yesterday: 24 °F

Past Weeks' High & Low Weather Summary

 TemperatureHumidityPressure
High41 °F (Feb 22, 11:00 AM)100% (Feb 19, 4:00 AM)30.63 "Hg (Feb 19, 4:00 AM)
Low-9 °F (Feb 24, 7:00 AM)41% (Feb 21, 5:00 PM)29.31 "Hg (Feb 25, 5:00 PM)
Average19 °F79%29.98 "Hg
* Reported Feb 19 4:00 AM — Mar 6 4:00 AM, Pictou County, Weather by CustomWeather, © 2015

Note: Actual official high and low records may vary slightly from our data, if they occured in-between our weather recording intervals... More about our weather records

Advertising

Pictou County weather history for previous 24 hours

 ConditionsComfort  
Time TempWeatherWind HumidityBarometerVisibility
4:00 AM
Fri, Mar 6
4 °FFrigid.13 mph78%30.17 "HgN/A
3:00 AM7 °FFrigid.14 mph78%30.14 "HgN/A
2:00 AM9 °FFrigid.16 mph75%30.13 "HgN/A
1:00 AM11 °FCold.15 mph73%30.10 "HgN/A
12:00 AM11 °FCold.18 mph69%30.10 "HgN/A
11:00 PM
Thu, Mar 5
12 °FCold.17 mph68%30.08 "HgN/A
10:00 PM13 °FCold.15 mph66%30.05 "HgN/A
9:00 PM14 °FCold.10 mph69%30.01 "HgN/A
8:00 PM15 °FCold.14 mph67%30.00 "HgN/A
7:00 PM16 °FCold.22 mph61%29.98 "HgN/A
6:00 PM16 °FCold.20 mph59%29.93 "HgN/A
5:00 PM18 °FCold.16 mph65%29.90 "HgN/A
4:00 PM20 °FCold.24 mph60%29.87 "HgN/A
3:00 PM20 °FCold.23 mph63%29.84 "HgN/A
2:00 PM22 °FCold.21 mph60%29.82 "HgN/A
1:00 PM21 °FCold.21 mph64%29.84 "HgN/A
12:00 PM23 °FCold.20 mph63%29.83 "HgN/A
11:00 AM23 °FCold.24 mph78%29.80 "HgN/A
10:00 AM27 °FChilly.17 mph77%29.77 "HgN/A
9:00 AM27 °FChilly.15 mph81%29.75 "HgN/A
8:00 AM28 °FChilly.16 mph76%29.71 "HgN/A
7:00 AM31 °FChilly.7 mph63%29.68 "HgN/A
6:00 AM31 °FChilly.6 mph68%29.67 "HgN/A
5:00 AM31 °FChilly.12 mph74%29.68 "HgN/A
Weather by CustomWeather, © 2015

See weather overviewHow to use our weather pages